Location: Agy
(49.2397°N, 0.7667°W)
Time: 10:58:38
(UTC+00:00)

Daily predictions for brighter satellites

Satellite Brightness Start Highest point End
(mag) Time Altitude Azimuth Time Altitude Azimuth Time Altitude Azimuth
Cosmos 1833 Rocket 3.2 17:18:39 10° NNW 17:23:53 37° NE 17:29:04 10° ESE
Lacrosse 5 4.3 17:21:49 10° WNW 17:26:04 27° SW 17:30:17 10° S
Envisat 4.3 17:22:07 10° S 17:27:00 46° W 17:31:55 10° NNW
NOSS 2-1 (D) 3.4 17:26:10 10° SSW 17:29:19 41° SE 17:32:36 10° NE
H-2A R/B 3.1 17:25:23 10° ESE 17:29:23 24° ENE 17:33:28 10° N
Meteor 1-21 Rocket 4.4 17:24:28 10° S 17:29:48 52° E 17:35:15 10° NNE
Cosmos 2344 4.3 17:21:03 10° NW 17:29:50 64° NE 17:41:57 10° ESE
H-2A R/B 2.1 17:26:30 10° NNE 17:30:53 60° ESE 17:35:06 10° S
Cosmos 1939 Rocket 3.1 17:27:22 10° SE 17:31:16 47° ENE 17:35:09 10° N
USA 229 DEB 3.9 17:24:29 10° NW 17:31:43 70° NE 17:39:21 10° SE
USA 229 3.9 17:24:35 10° NW 17:31:49 70° NE 17:39:28 10° SE
Cosmos 44 3.4 17:28:32 10° SSW 17:33:20 70° SE 17:38:30 10° NE
CZ-3B R/B 1.5 17:31:05 10° NW 17:33:21 64° NNE 17:38:53 10° ESE
Cosmos 1602 Rocket 4.2 17:30:05 10° SSE 17:34:03 35° E 17:38:03 10° NNE
SeaSat 1 3.1 17:30:08 10° NNE 17:34:58 55° NW 17:39:46 10° SW
Feng Yun 1-1 Rocket 4.4 17:31:26 10° SE 17:36:44 52° ENE 17:42:13 10° N
SJ 16-02 1.6 17:32:22 10° SSW 17:36:46 76° WNW 17:41:11 10° NNE
Cosmos 2112 Rocket 4.0 17:31:36 10° NNW 17:36:52 78° ENE 17:42:03 10° SSE
FengYun 1-2 T 4.3 17:33:54 10° SSE 17:39:30 90° WSW 17:45:11 10° NNW
Cosmos 990 Rocket 4.1 17:35:11 10° S 17:40:16 58° ESE 17:45:22 10° NNE
YAOGAN 1 3.6 17:37:18 10° ESE 17:40:47 24° ENE 17:44:17 10° N
Cosmos 1844 Rocket 3.0 17:36:12 10° SW 17:41:51 71° WNW 17:47:31 10° NNE
Cosmos 1892 Rocket 4.4 17:37:40 10° SSW 17:41:54 53° WNW 17:46:11 10° N
Aureole 3 Rocket 3.3 17:39:19 10° NNE 17:42:12 29° ENE 17:45:36 10° SE
H-2A R/B 3.4 17:38:33 10° S 17:42:39 56° W 17:46:56 10° NNW
COSMOS 2406 3.4 17:37:41 10° NNW 17:43:24 56° NE 17:49:03 10° SE
Cosmos 1818 4.1 17:38:04 10° SW 17:43:25 58° NW 17:48:51 10° NE
Cosmos 2082 Rocket 2.9 17:38:29 10° NNW 17:43:36 32° NE 17:48:40 10° ESE
Cosmos 1844 3.9 17:40:12 10° SSW 17:45:53 80° WNW 17:51:42 10° NNE
NOSS 3-1 (A) 4.0 17:40:02 10° NW 17:47:22 75° NE 17:55:56 10° SE
Cosmos 1703 3.3 17:44:13 10° S 17:47:59 53° E 17:51:47 10° NNE
X-37B 1.9 17:45:11 10° WSW 17:48:08 35° S 17:51:06 10° ESE
IRS-1C Rocket 4.3 17:45:12 10° SE 17:50:14 48° ENE 17:55:18 10° N
ISS -3.4 17:47:50 10° W 17:51:10 57° N 17:53:50 15° ENE
Cosmos 1812 Rocket 3.6 17:47:05 10° N 17:51:25 58° ENE 17:55:42 10° SSE
Meteor 2-1 Rocket 4.5 17:47:40 10° NNW 17:53:12 73° W 17:58:41 10° S
ATLAS 2AS CENTAUR R/B 4.2 17:47:30 10° WNW 17:54:13 29° NNW 18:00:40 10° NE
Okean O Rocket 2.3 17:51:39 10° S 17:56:02 60° W 18:00:24 10° NNW
ATLAS 5 CENTAUR R/B 3.7 17:53:22 10° WNW 17:56:35 19° NNW 18:00:09 10° NNE
Iridium 4 Rocket 3.7 17:54:30 10° N 17:59:47 48° E 18:04:33 10° SSE
CZ-4 R/B 1.8 17:56:34 10° SE 18:00:18 38° ENE 18:03:59 10° N
ERS-2 3.1 17:58:38 10° NE 18:01:40 26° E 18:04:46 10° SSE
SKYMED 2 3.7 17:57:28 10° NNE 18:01:45 53° E 18:05:59 10° S
CSL-04 Rocket 4.4 18:00:08 10° ESE 18:04:55 32° ENE 18:09:45 10° N
CZ-4C R/B 4.0 18:02:02 10° NW 18:06:46 23° N 18:11:46 11° NE
Okean-O 2.9 18:03:37 10° SE 18:07:48 43° ENE 18:12:02 10° N
USA 234 3.8 18:05:52 14° ENE 18:11:12 46° N 18:17:22 10° WNW
Cosmos 1340 2.5 18:07:43 10° S 18:11:28 79° E 18:15:14 10° NNE
Cosmos 1346 Rocket 3.4 18:08:32 10° SSE 18:12:04 33° E 18:15:11 12° NNE
Cosmos 2278 Rocket 2.5 18:06:49 10° S 18:12:09 44° ESE 18:17:11 12° NE
Cosmos 858 Rocket 4.5 18:08:57 10° S 18:14:11 68° ESE 18:19:27 10° NNE
Cosmos 1953 Rocket 4.4 18:12:01 10° SE 18:15:38 26° E 18:17:57 17° NE
CZ-2C R/B 3.2 18:10:49 10° SSE 18:16:20 85° ENE 18:22:08 10° NNW
SAR-Lupe-4 4.2 18:17:50 21° NE 18:19:39 33° E 18:22:55 10° SSE
Cosmos 2292 Rocket 4.4 18:16:31 10° SE 18:20:17 24° E 18:20:40 24° E
COSMOS 2455 4.3 18:15:57 10° W 18:21:19 32° NW 18:26:41 10° NNE
Cosmos 405 2.9 18:18:06 10° NNW 18:21:40 86° W 18:25:10 10° S
Cosmos 1455 4.4 18:18:45 10° NNW 18:22:06 29° W 18:25:26 10° SSW
Cosmos 44 Rocket 4.5 18:18:24 10° SSE 18:22:17 24° ESE 18:23:19 22° E
NOSS 2-1 (E) 3.3 18:21:12 10° SW 18:24:29 63° NW 18:26:46 20° NNE
Cosmos 1627 Rocket 4.4 18:21:20 10° S 18:27:33 83° E 18:33:54 10° N
Cosmos 1626 Rocket 4.5 18:23:53 10° SSW 18:28:11 51° WNW 18:32:32 10° N
TELKOM 3 2.6 18:26:18 10° W 18:28:29 75° SSW 18:28:34 73° SSE
Cosmos 1869 3.9 18:26:19 10° N 18:29:51 32° ENE 18:30:11 31° E
ARGOS 3.3 18:24:46 10° SE 18:29:55 50° ENE 18:35:08 10° N
Meteor 2-19 Rocket 4.4 18:25:40 10° S 18:31:45 67° E 18:37:53 10° NNE
PSLV R/B 4.0 18:28:53 10° NNE 18:33:03 56° E 18:37:11 10° S
Cosmos 1898 Rocket 4.0 18:29:58 10° SW 18:35:10 62° WNW 18:40:22 10° NNE
SAR-Lupe-1 4.2 18:34:04 27° NE 18:35:46 51° ESE 18:39:16 10° S
Cosmos 372 Rocket 4.0 18:30:45 10° S 18:35:51 58° ESE 18:39:58 16° NNE
Cosmos 1092 Rocket 4.2 18:30:20 10° SSW 18:36:29 72° W 18:42:39 10° N
CZ-4B R/B 2.1 18:33:27 10° N 18:36:41 51° WNW 18:39:50 10° SSW
CZ-2C R/B 3.4 18:33:45 14° NE 18:37:58 32° E 18:42:58 10° SSE
Cosmos 1328 4.4 18:34:52 10° SSW 18:38:48 57° WNW 18:42:44 10° N
Cosmos 494 Rocket 4.4 18:35:56 10° NNW 18:40:47 39° ENE 18:42:29 31° E
CZ-2D R/B 4.4 18:37:07 10° S 18:40:48 45° W 18:44:31 10° NNW
MOS 1 Rocket 3.3 18:40:17 10° N 18:44:34 71° WNW 18:48:53 10° SSW
Cosmos 2150 Rocket 4.5 18:40:29 10° SSE 18:45:10 36° ESE 18:45:58 34° E
Cosmos 1048 Rocket 3.9 18:40:49 10° NNW 18:45:54 58° ENE 18:49:36 18° SE
Cosmos-2242 3.2 18:42:01 10° NNW 18:46:19 73° W 18:50:37 10° S
COSMO-SKYMED 1 3.3 18:45:34 10° N 18:49:48 53° WNW 18:54:01 10° SSW
Meteor 1-11 4.2 18:46:11 10° SSW 18:51:52 84° WNW 18:57:31 10° N
USA 290 3.9 18:51:45 10° NW 18:54:41 34° WSW 18:57:36 10° S
Cosmos 1758 Rocket 4.0 18:50:26 10° SSW 18:54:52 65° WNW 18:59:22 10° N
Cosmos 1937 Rocket 4.2 18:52:32 10° SW 18:57:46 56° WNW 19:03:01 10° NNE
SL-08 RB Rocket 3.6 18:59:18 28° SE 19:01:34 64° ENE 19:06:00 10° N
CSL-04 Debris 4.1 18:58:22 10° SSE 19:03:45 90° ENE 19:09:11 10° NNW
Cosmos 2221 4.0 19:01:41 10° N 19:03:42 24° NNE 19:03:42 24° NNE
Helios 1A Rocket 3.3 19:02:28 10° S 19:06:35 67° WSW 19:10:44 10° NNW
Cosmos 389 Rocket 4.0 19:04:11 10° N 19:05:55 27° N 19:05:55 27° N
Cosmos 1833 Rocket 3.8 19:02:36 10° NW 19:07:54 44° WSW 19:13:12 10° S
H-2A R/B 2.5 19:03:23 10° S 19:08:23 60° W 19:13:34 10° NNW
Cosmos 1125 Rocket 4.1 19:04:52 10° S 19:08:41 38° SE 19:08:41 38° SE
Cosmos 1809 Rocket 4.4 19:04:26 10° S 19:10:27 62° E 19:16:32 10° NNE
Cosmos 2298 Rocket 3.9 19:07:07 10° S 19:12:22 65° ESE 19:13:35 50° NE
Cosmos 1689 Rocket 3.7 19:13:25 30° WSW 19:13:25 30° WSW 19:15:11 10° SSW
Cosmos 2266 Rocket 3.9 19:08:32 10° S 19:14:38 60° E 19:20:39 10° NNE
SJ 16-02 4.2 19:14:16 10° WNW 19:16:10 12° NW 19:18:04 10° NNW
YAOGAN 1 3.8 19:12:34 10° S 19:16:40 42° W 19:20:49 10° NNW
NOSS 2-2 (C) 4.3 19:13:19 10° NW 19:18:30 69° NE 19:20:07 50° ESE
HJ-1C 4.4 19:20:23 46° WSW 19:20:34 46° W 19:23:50 10° NNW
X-37B 3.2 19:22:07 10° WSW 19:23:54 16° SW 19:23:54 16° SW
In-Cosmos 22 Rocket 4.1 19:18:31 10° S 19:24:17 80° E 19:29:35 12° NNE
Cosmos 2082 Rocket 2.8 19:22:25 10° NW 19:28:00 56° WSW 19:33:33 10° S
ISS -2.0 19:24:50 10° WNW 19:26:49 32° WNW 19:26:49 32° WNW
Cosmos 1241 Rocket 4.4 19:25:34 10° SSW 19:32:01 73° ESE 19:33:16 58° ENE
ERS-2 4.2 19:33:12 17° NNW 19:35:10 27° WNW 19:38:15 10° WSW
CZ-4 R/B 3.9 19:32:17 10° SW 19:35:26 22° W 19:38:34 10° NW
MetOp-A 4.0 19:37:46 79° NE 19:37:46 79° NE 19:42:58 10° NNW
Meteor 2-21 4.3 19:34:07 10° S 19:40:12 86° E 19:46:24 10° N
NOSS 2-2 (E) 4.5 19:36:17 10° NW 19:41:45 81° SW 19:43:31 53° SSE
ATLAS 5 CENTAUR R/B 3.9 19:39:44 10° NNW 19:42:29 17° N 19:42:29 17° N
Cosmos 2315 Rocket 3.8 19:39:17 10° N 19:45:35 84° E 19:46:33 66° SSE
Cosmos 883 Rocket 4.4 19:40:09 10° N 19:46:23 82° W 19:50:11 25° S
ATLAS 2AS CENTAUR R/B 3.9 19:40:53 10° NW 19:47:33 30° NNE 19:48:21 30° NNE
Meteor 2-14 Rocket 4.3 19:42:09 10° S 19:48:13 87° W 19:54:22 10° N
Ariane Rocket 4.1 19:51:36 33° N 19:51:36 33° N 19:54:25 10° NNW
IRS-1A Rocket 4.3 19:51:16 72° N 19:51:16 72° N 19:56:34 10° NNW
USA 234 3.5 19:53:13 53° NNE 19:53:36 53° NNE 19:59:56 10° WNW
Cosmos 2278 Rocket 3.4 19:51:05 10° WSW 19:56:20 38° NW 19:59:04 24° N
CZ-4C R/B 3.7 19:51:31 10° NW 19:56:57 32° NNE 19:56:57 32° NNE
Cosmos 1655 Rocket 4.5 19:51:50 10° SSW 19:57:57 58° WNW 20:04:07 10° N
USA 281 4.2 20:04:50 34° NNE 20:04:50 34° NNE 20:08:55 10° NNW
Cosmos 44 Rocket 4.2 19:58:28 10° SW 20:02:05 46° WSW 20:02:05 46° WSW
CZ-2C R/B 3.7 20:15:09 22° N 20:18:23 46° WNW 20:23:42 10° SW
ATLAS 2AS CENTAUR R/B 4.5 21:32:31 10° NW 21:35:47 27° NNW 21:35:47 27° NNW
